When you browse on this site, cookies collect data to enhance your experience and personalize the content and advertising you see.
Visit our Privacy Policy to learn more. By continuing to use the site, you agree to this use of cookies and data.
EN

Hourly Weather Trelkowo

Today, 12 July, Sunday

Time Temperature Precipitation Wind Pressure Humidity
00:00 +10°C° 0 mm 2 mps 750 mmHg 90%
01:00 +10°C° 0 mm 1 mps 751 mmHg 89%
02:00 +9°C° 0 mm 2 mps 751 mmHg 89%
03:00 +9°C° 0 mm 2 mps 750 mmHg 90%
04:00 +9°C° 0 mm 2 mps 750 mmHg 90%
05:00 +10°C° 0 mm 2 mps 750 mmHg 85%
06:00 +12°C° 0 mm 3 mps 751 mmHg 79%
07:00 +13°C° 0 mm 3 mps 751 mmHg 74%
08:00 +14°C° 0 mm 3 mps 751 mmHg 69%
09:00 +17°C° 0 mm 4 mps 751 mmHg 63%
10:00 +18°C° 0 mm 4 mps 751 mmHg 57%
11:00 +18°C° 0.1 mm 4 mps 751 mmHg 56%
12:00 +19°C° 0.1 mm 4 mps 751 mmHg 56%
13:00 +19°C° 0.1 mm 4 mps 751 mmHg 56%
14:00 +19°C° 0.2 mm 4 mps 751 mmHg 59%
15:00 +18°C° 0.2 mm 4 mps 751 mmHg 62%
16:00 +17°C° 0.2 mm 4 mps 751 mmHg 66%
17:00 +17°C° 0 mm 3 mps 751 mmHg 70%
18:00 +16°C° 0 mm 2 mps 751 mmHg 75%
19:00 +15°C° 0 mm 1 mps 751 mmHg 79%
20:00 +13°C° 0 mm 1 mps 751 mmHg 83%
21:00 +12°C° 0 mm 1 mps 751 mmHg 87%
22:00 +11°C° 0 mm 1 mps 751 mmHg 91%
23:00 +10°C° 0 mm 1 mps 751 mmHg 92%

Tomorrow, 13 July, Monday

Time Temperature Precipitation Wind Pressure Humidity
00:00 +9°C° 0 mm 2 mps 751 mmHg 93%
01:00 +9°C° 0 mm 2 mps 751 mmHg 94%
02:00 +8°C° 0 mm 2 mps 750 mmHg 94%
03:00 +8°C° 0 mm 3 mps 750 mmHg 95%
04:00 +8°C° 0 mm 3 mps 750 mmHg 95%
05:00 +10°C° 0 mm 3 mps 750 mmHg 90%
06:00 +12°C° 0 mm 3 mps 750 mmHg 84%
07:00 +14°C° 0 mm 4 mps 750 mmHg 79%
08:00 +15°C° 0.1 mm 4 mps 750 mmHg 75%
09:00 +17°C° 0.1 mm 4 mps 750 mmHg 72%
10:00 +18°C° 0.1 mm 4 mps 750 mmHg 68%
11:00 +18°C° 0.2 mm 4 mps 749 mmHg 70%
12:00 +18°C° 0.2 mm 4 mps 749 mmHg 72%
13:00 +17°C° 0.2 mm 4 mps 749 mmHg 75%
14:00 +18°C° 0.1 mm 4 mps 749 mmHg 73%
15:00 +18°C° 0.1 mm 4 mps 749 mmHg 70%
16:00 +19°C° 0.1 mm 4 mps 748 mmHg 68%
17:00 +18°C° 0 mm 4 mps 748 mmHg 73%
18:00 +17°C° 0 mm 3 mps 748 mmHg 78%
19:00 +14°C° 0 mm 3 mps 748 mmHg 83%
20:00 +14°C° 0 mm 2 mps 748 mmHg 87%
21:00 +13°C° 0 mm 2 mps 748 mmHg 91%
22:00 +12°C° 0 mm 1 mps 748 mmHg 95%
23:00 +11°C° 0 mm 1 mps 748 mmHg 95%

Day after tomorrow, 14 July, Tuesday

Time Temperature Precipitation Wind Pressure Humidity
00:00 +11°C° 0 mm 1 mps 748 mmHg 95%
01:00 +11°C° 0 mm 1 mps 748 mmHg 96%
02:00 +10°C° 0 mm 1 mps 748 mmHg 96%
03:00 +10°C° 0 mm 1 mps 748 mmHg 96%
04:00 +10°C° 0 mm 1 mps 748 mmHg 96%
05:00 +10°C° 0 mm 2 mps 748 mmHg 89%
06:00 +13°C° 0 mm 2 mps 748 mmHg 83%
07:00 +15°C° 0 mm 2 mps 748 mmHg 76%
08:00 +16°C° 0 mm 2 mps 748 mmHg 69%
09:00 +18°C° 0 mm 2 mps 748 mmHg 61%
10:00 +19°C° 0 mm 2 mps 748 mmHg 54%
11:00 +20°C° 0 mm 2 mps 748 mmHg 52%
12:00 +21°C° 0 mm 2 mps 748 mmHg 49%
13:00 +23°C° 0 mm 2 mps 748 mmHg 47%
14:00 +23°C° 0 mm 2 mps 747 mmHg 49%
15:00 +21°C° 0 mm 2 mps 747 mmHg 51%
16:00 +21°C° 0 mm 2 mps 747 mmHg 52%
17:00 +20°C° 0 mm 2 mps 747 mmHg 61%
18:00 +19°C° 0 mm 2 mps 747 mmHg 69%
19:00 +17°C° 0 mm 2 mps 746 mmHg 77%
20:00 +16°C° 0 mm 1 mps 746 mmHg 81%
21:00 +14°C° 0 mm 1 mps 746 mmHg 86%
22:00 +13°C° 0 mm 1 mps 746 mmHg 90%
23:00 +13°C° 0 mm 1 mps 746 mmHg 91%

15 July, Wednesday

Time Temperature Precipitation Wind Pressure Humidity
00:00 +12°C° 0 mm 1 mps 746 mmHg 91%
01:00 +12°C° 0 mm 1 mps 746 mmHg 92%
02:00 +12°C° 0 mm 1 mps 746 mmHg 92%
03:00 +12°C° 0 mm 1 mps 746 mmHg 92%
04:00 +12°C° 0 mm 1 mps 745 mmHg 92%
05:00 +14°C° 0 mm 1 mps 745 mmHg 86%
06:00 +16°C° 0 mm 2 mps 745 mmHg 79%
07:00 +18°C° 0 mm 2 mps 745 mmHg 73%
08:00 +19°C° 0.1 mm 2 mps 745 mmHg 69%
09:00 +20°C° 0.1 mm 2 mps 745 mmHg 65%
10:00 +21°C° 0.1 mm 2 mps 745 mmHg 61%
11:00 +22°C° 0.1 mm 3 mps 744 mmHg 57%
12:00 +24°C° 0.1 mm 3 mps 744 mmHg 54%
13:00 +25°C° 0.1 mm 3 mps 744 mmHg 51%
14:00 +24°C° 0.1 mm 3 mps 743 mmHg 54%
15:00 +24°C° 0.1 mm 3 mps 743 mmHg 57%
16:00 +24°C° 0.1 mm 3 mps 742 mmHg 60%
17:00 +21°C° 0.6 mm 3 mps 742 mmHg 68%
18:00 +20°C° 0.6 mm 3 mps 742 mmHg 77%
19:00 +18°C° 0.6 mm 3 mps 742 mmHg 86%
20:00 +18°C° 0.2 mm 3 mps 742 mmHg 88%
21:00 +17°C° 0.2 mm 3 mps 741 mmHg 90%
22:00 +16°C° 0.2 mm 2 mps 741 mmHg 92%
23:00 +16°C° 0.3 mm 3 mps 741 mmHg 93%

16 July, Thursday

Time Temperature Precipitation Wind Pressure Humidity
00:00 +14°C° 0.3 mm 3 mps 741 mmHg 94%
01:00 +14°C° 0.3 mm 3 mps 740 mmHg 95%
02:00 +14°C° 0.6 mm 3 mps 740 mmHg 96%
03:00 +15°C° 0.6 mm 2 mps 740 mmHg 96%
04:00 +15°C° 0.6 mm 2 mps 739 mmHg 97%
05:00 +15°C° 1.7 mm 2 mps 739 mmHg 97%
06:00 +15°C° 1.7 mm 2 mps 739 mmHg 97%
07:00 +14°C° 1.7 mm 2 mps 739 mmHg 97%
08:00 +14°C° 1.1 mm 2 mps 739 mmHg 96%
09:00 +14°C° 1.1 mm 2 mps 739 mmHg 95%
10:00 +15°C° 1.1 mm 2 mps 739 mmHg 95%
11:00 +16°C° 0.8 mm 2 mps 739 mmHg 91%
12:00 +17°C° 0.8 mm 2 mps 740 mmHg 86%
13:00 +18°C° 0.8 mm 2 mps 740 mmHg 82%
14:00 +18°C° 0.9 mm 2 mps 740 mmHg 83%
15:00 +18°C° 0.9 mm 3 mps 739 mmHg 84%
16:00 +17°C° 0.9 mm 3 mps 739 mmHg 84%
17:00 +17°C° 0.3 mm 2 mps 739 mmHg 87%
18:00 +16°C° 0.3 mm 2 mps 739 mmHg 89%
19:00 +15°C° 0.3 mm 2 mps 739 mmHg 91%
20:00 +14°C° 0 mm 2 mps 739 mmHg 94%
21:00 +14°C° 0 mm 2 mps 739 mmHg 96%
22:00 +13°C° 0 mm 2 mps 740 mmHg 98%
23:00 +13°C° 0.1 mm 2 mps 740 mmHg 98%

17 July, Friday

Time Temperature Precipitation Wind Pressure Humidity
00:00 +13°C° 0.1 mm 1 mps 740 mmHg 98%
01:00 +13°C° 0.1 mm 1 mps 740 mmHg 98%
02:00 +13°C° 1 mm 2 mps 740 mmHg 98%
03:00 +13°C° 1 mm 2 mps 740 mmHg 98%
04:00 +14°C° 1 mm 2 mps 740 mmHg 98%
05:00 +14°C° 0.9 mm 2 mps 740 mmHg 98%
06:00 +14°C° 0.9 mm 2 mps 740 mmHg 98%
07:00 +15°C° 0.9 mm 2 mps 741 mmHg 97%
08:00 +16°C° 0.3 mm 2 mps 741 mmHg 93%
09:00 +17°C° 0.3 mm 2 mps 741 mmHg 89%
10:00 +19°C° 0.3 mm 2 mps 742 mmHg 84%
11:00 +20°C° 0.6 mm 2 mps 742 mmHg 80%
12:00 +20°C° 0.6 mm 3 mps 742 mmHg 76%
13:00 +21°C° 0.6 mm 4 mps 742 mmHg 72%
14:00 +21°C° 0.5 mm 4 mps 742 mmHg 72%
15:00 +21°C° 0.5 mm 4 mps 742 mmHg 73%
16:00 +20°C° 0.5 mm 4 mps 743 mmHg 73%
17:00 +19°C° 0.1 mm 4 mps 743 mmHg 77%
18:00 +18°C° 0.1 mm 4 mps 743 mmHg 81%
19:00 +17°C° 0.1 mm 3 mps 743 mmHg 85%
20:00 +16°C° 0 mm 3 mps 744 mmHg 88%
21:00 +14°C° 0 mm 3 mps 744 mmHg 92%
22:00 +14°C° 0 mm 2 mps 744 mmHg 95%
23:00 +13°C° 0 mm 2 mps 744 mmHg 95%
Show more